AFR196 LFPG-VTBS

Flight info

Callsign AFR196
Flight time N/A
Altitude 37000
Route LANVI DCT BEGAR DCT TRA DCT GAMSA DCT GEDSO DCT ABTAN DCT GOTAR DCT TEGRI DCT OPT DCT LUGEB DCT UDROS UN743 GAKSU UT310 SIN UM860 CRM UM11 IPSAT/N0491F390 UM11 REBLO M11 RODAR A909 TUNEK B143 KRS A240 INRAK B449 DOLOS B475 NINOP A909 LEMOD N644 DI A466 SULOM M890 CHG/N0485F410 M890 LKN R460 CEA L507 IGONI
Aircraft A359/H-SDE2E3GHIJ3J4J5LM1ORWXY/LB1D1

Departure

Time 2026-05-05 06:59
Airport Charles de Gaulle International Airport (LFPG)

Arrival

Time N/A
Airport Suvarnabhumi Airport (VTBS)
Time Latitude Longitude Altitude Speed Heading
2026-05-05 06:49 49.00334 2.58743 359 ft 0 kts 176°
2026-05-05 06:50 49.00311 2.58746 362 ft 8 kts 176°
2026-05-05 06:50 49.00252 2.58753 361 ft 9 kts 176°
2026-05-05 06:50 49.00181 2.58760 362 ft 11 kts 176°
2026-05-05 06:51 49.00104 2.58769 360 ft 11 kts 177°
2026-05-05 06:51 49.00042 2.58713 363 ft 11 kts 240°
2026-05-05 06:51 49.00025 2.58597 360 ft 12 kts 264°
2026-05-05 06:51 49.00020 2.58466 364 ft 13 kts 267°
2026-05-05 06:52 49.00013 2.58323 366 ft 14 kts 265°
2026-05-05 06:52 49.00005 2.58168 360 ft 15 kts 265°
2026-05-05 06:52 48.99996 2.58005 360 ft 16 kts 265°
2026-05-05 06:52 48.99987 2.57830 366 ft 17 kts 265°
2026-05-05 06:53 48.99977 2.57645 366 ft 18 kts 265°
2026-05-05 06:53 48.99967 2.57457 360 ft 19 kts 265°
2026-05-05 06:53 48.99956 2.57254 360 ft 19 kts 265°
2026-05-05 06:53 48.99945 2.57045 367 ft 20 kts 265°
2026-05-05 06:54 48.99934 2.56834 360 ft 18 kts 264°
2026-05-05 06:54 48.99923 2.56640 361 ft 19 kts 265°
2026-05-05 06:54 48.99912 2.56439 365 ft 20 kts 265°
2026-05-05 06:54 48.99901 2.56228 366 ft 20 kts 265°
2026-05-05 06:55 48.99889 2.56015 360 ft 19 kts 266°
2026-05-05 06:55 48.99912 2.55823 368 ft 16 kts 285°
2026-05-05 06:55 48.99941 2.55660 365 ft 16 kts 261°
2026-05-05 06:55 48.99901 2.55502 366 ft 16 kts 259°
2026-05-05 06:56 48.99889 2.55326 360 ft 17 kts 265°
2026-05-05 06:56 48.99880 2.55141 362 ft 18 kts 266°
2026-05-05 06:56 48.99869 2.54957 366 ft 16 kts 265°
2026-05-05 06:56 48.99850 2.54847 367 ft 8 kts 229°
2026-05-05 06:57 48.99797 2.54833 362 ft 9 kts 167°
2026-05-05 06:57 48.99743 2.54890 368 ft 10 kts 131°
2026-05-05 06:57 48.99704 2.54992 367 ft 10 kts 116°
2026-05-05 06:57 48.99670 2.55099 365 ft 12 kts 115°
2026-05-05 06:58 48.99633 2.55221 365 ft 13 kts 115°
2026-05-05 06:58 48.99590 2.55359 365 ft 16 kts 115°
2026-05-05 06:58 48.99585 2.55532 364 ft 17 kts 83°
2026-05-05 06:58 48.99600 2.55797 363 ft 44 kts 85°
2026-05-05 06:59 48.99639 2.56556 367 ft 99 kts 85°
2026-05-05 06:59 48.99708 2.57851 362 ft 145 kts 86°
2026-05-05 06:59 48.99772 2.59579 586 ft 165 kts 87°
2026-05-05 06:59 48.99779 2.61236 1354 ft 158 kts 89°
2026-05-05 07:00 48.99858 2.62945 1852 ft 164 kts 84°
2026-05-05 07:00 48.99969 2.64652 2428 ft 163 kts 85°
2026-05-05 07:00 49.00071 2.66384 2913 ft 166 kts 85°
2026-05-05 07:00 49.00169 2.68145 3357 ft 168 kts 86°
2026-05-05 07:01 49.00269 2.69982 3650 ft 182 kts 86°
2026-05-05 07:01 49.00372 2.71999 3873 ft 199 kts 86°
2026-05-05 07:01 49.00478 2.74203 4075 ft 218 kts 86°
2026-05-05 07:01 49.00568 2.76424 4364 ft 234 kts 89°
2026-05-05 07:02 49.00437 2.78960 4818 ft 245 kts 99°
2026-05-05 07:02 49.00166 2.81554 5358 ft 251 kts 99°
2026-05-05 07:02 48.99888 2.84204 5962 ft 255 kts 99°
2026-05-05 07:02 48.99612 2.86900 6571 ft 260 kts 99°
2026-05-05 07:03 48.99336 2.89632 7218 ft 263 kts 99°
2026-05-05 07:03 48.99057 2.92404 7879 ft 267 kts 99°
2026-05-05 07:03 48.98871 2.94261 8331 ft 269 kts 99°
2026-05-05 07:03 48.98507 2.98068 9234 ft 274 kts 97°
2026-05-05 07:04 48.98273 3.00961 9913 ft 277 kts 97°
2026-05-05 07:04 48.98032 3.03934 10328 ft 290 kts 98°
2026-05-05 07:04 48.97773 3.07035 10626 ft 307 kts 98°
2026-05-05 07:04 48.97492 3.10340 10935 ft 323 kts 98°
2026-05-05 07:05 48.97197 3.13816 11244 ft 338 kts 96°
2026-05-05 07:05 48.96940 3.17427 11717 ft 347 kts 96°
2026-05-05 07:05 48.96675 3.21108 12294 ft 353 kts 96°
2026-05-05 07:05 48.96386 3.24833 12901 ft 357 kts 97°
2026-05-05 07:06 48.96077 3.28613 13524 ft 362 kts 97°
2026-05-05 07:06 48.95757 3.32434 14084 ft 366 kts 98°
2026-05-05 07:06 48.95431 3.36251 14657 ft 368 kts 98°
2026-05-05 07:06 48.95113 3.39957 15211 ft 371 kts 98°
2026-05-05 07:07 48.94774 3.43870 15774 ft 374 kts 98°
2026-05-05 07:07 48.94548 3.46475 16140 ft 376 kts 98°
2026-05-05 07:07 48.94202 3.50438 16714 ft 379 kts 98°
2026-05-05 07:07 48.93852 3.54432 17292 ft 382 kts 99°
2026-05-05 07:08 48.93545 3.58451 17872 ft 385 kts 96°
2026-05-05 07:08 48.93348 3.62534 18437 ft 387 kts 95°
2026-05-05 07:08 48.93159 3.66635 18924 ft 391 kts 96°
2026-05-05 07:08 48.92955 3.70775 19417 ft 394 kts 96°
2026-05-05 07:09 48.92740 3.74966 19922 ft 398 kts 96°
2026-05-05 07:09 48.92518 3.79188 20428 ft 401 kts 96°
2026-05-05 07:09 48.92294 3.83373 20908 ft 405 kts 96°
2026-05-05 07:09 48.92061 3.87668 21409 ft 409 kts 96°
2026-05-05 07:10 48.91824 3.91995 21890 ft 412 kts 96°
2026-05-05 07:10 48.91584 3.96350 22376 ft 416 kts 96°
2026-05-05 07:10 48.91338 4.00774 22838 ft 420 kts 97°
2026-05-05 07:10 48.91090 4.05203 23313 ft 424 kts 97°
2026-05-05 07:11 48.90836 4.09695 23732 ft 427 kts 97°
2026-05-05 07:11 48.90580 4.14214 24160 ft 430 kts 97°
2026-05-05 07:11 48.90279 4.18745 24570 ft 432 kts 101°
2026-05-05 07:11 48.89608 4.23191 25008 ft 431 kts 111°
2026-05-05 07:12 48.88420 4.27359 25440 ft 429 kts 121°
2026-05-05 07:12 48.86981 4.31343 25888 ft 430 kts 122°
2026-05-05 07:12 48.85531 4.35260 26325 ft 432 kts 122°
2026-05-05 07:12 48.84056 4.39255 26728 ft 434 kts 123°
2026-05-05 07:13 48.82572 4.43278 27117 ft 437 kts 123°
2026-05-05 07:13 48.81086 4.47312 27542 ft 439 kts 123°
2026-05-05 07:13 48.79595 4.51360 27952 ft 441 kts 123°
2026-05-05 07:13 48.78093 4.55431 28370 ft 443 kts 123°
2026-05-05 07:14 48.76584 4.59518 28788 ft 445 kts 123°
2026-05-05 07:14 48.75066 4.63622 29175 ft 447 kts 124°
2026-05-05 07:14 48.73543 4.67735 29554 ft 449 kts 124°
2026-05-05 07:14 48.72012 4.71865 29951 ft 451 kts 124°
2026-05-05 07:15 48.70476 4.76002 30257 ft 452 kts 124°
2026-05-05 07:15 48.68927 4.80167 30563 ft 455 kts 124°
2026-05-05 07:15 48.67370 4.84344 30855 ft 457 kts 124°
2026-05-05 07:15 48.65803 4.88544 31142 ft 459 kts 124°
2026-05-05 07:16 48.64246 4.92708 31407 ft 461 kts 124°
2026-05-05 07:16 48.62664 4.96934 31654 ft 463 kts 124°
2026-05-05 07:16 48.61069 5.01187 31894 ft 465 kts 125°
2026-05-05 07:16 48.59473 5.05440 32104 ft 467 kts 125°
2026-05-05 07:17 48.57864 5.09718 32364 ft 468 kts 125°
2026-05-05 07:17 48.56254 5.13994 32704 ft 468 kts 125°
2026-05-05 07:17 48.54641 5.18270 33023 ft 467 kts 125°
2026-05-05 07:17 48.53030 5.22533 33330 ft 467 kts 125°
2026-05-05 07:18 48.51969 5.25340 33532 ft 466 kts 126°
2026-05-05 07:18 48.49811 5.31033 33930 ft 466 kts 126°
2026-05-05 07:18 48.48202 5.35271 34126 ft 467 kts 126°
2026-05-05 07:18 48.46600 5.39481 34294 ft 468 kts 125°
2026-05-05 07:19 48.44961 5.43780 34502 ft 469 kts 125°
2026-05-05 07:19 48.43333 5.48048 34669 ft 470 kts 125°
2026-05-05 07:19 48.41720 5.52266 34847 ft 471 kts 125°
2026-05-05 07:19 48.40078 5.56555 35019 ft 472 kts 125°
2026-05-05 07:20 48.38443 5.60819 35204 ft 472 kts 125°
2026-05-05 07:20 48.36799 5.65100 35377 ft 473 kts 125°
2026-05-05 07:20 48.35145 5.69400 35558 ft 474 kts 125°
2026-05-05 07:20 48.33494 5.73685 35731 ft 474 kts 124°
2026-05-05 07:21 48.31865 5.78019 35894 ft 477 kts 122°
2026-05-05 07:21 48.30527 5.82609 36044 ft 482 kts 114°
2026-05-05 07:21 48.29414 5.87367 36198 ft 484 kts 112°
2026-05-05 07:21 48.28363 5.92182 36352 ft 485 kts 112°
2026-05-05 07:22 48.27340 5.97003 36530 ft 485 kts 111°
2026-05-05 07:22 48.26315 6.01842 36692 ft 485 kts 111°
2026-05-05 07:22 48.25297 6.06606 36858 ft 486 kts 111°
2026-05-05 07:23 48.23187 6.16305 36887 ft 492 kts 112°
2026-05-05 07:23 48.21036 6.26059 36888 ft 492 kts 112°
2026-05-05 07:24 48.18878 6.35787 36890 ft 492 kts 112°
2026-05-05 07:24 48.16703 6.45545 36893 ft 492 kts 112°
2026-05-05 07:25 48.14527 6.55267 36896 ft 492 kts 112°
2026-05-05 07:25 48.12340 6.64995 36895 ft 492 kts 112°
2026-05-05 07:26 48.10156 6.74663 36892 ft 492 kts 112°
2026-05-05 07:26 48.07957 6.84355 36898 ft 492 kts 112°
2026-05-05 07:27 48.05744 6.94064 36892 ft 492 kts 112°
2026-05-05 07:27 48.03529 7.03747 36906 ft 492 kts 112°
2026-05-05 07:28 48.01322 7.13353 36904 ft 492 kts 112°
2026-05-05 07:28 47.99083 7.23033 36907 ft 492 kts 112°
2026-05-05 07:29 47.96838 7.32695 36910 ft 492 kts 112°
2026-05-05 07:29 47.94586 7.42354 36904 ft 493 kts 113°
2026-05-05 07:30 47.92322 7.52018 36900 ft 493 kts 113°
2026-05-05 07:30 47.88880 7.66381 36892 ft 492 kts 114°
2026-05-05 07:31 47.86440 7.75897 36894 ft 492 kts 115°
2026-05-05 07:31 47.83986 7.85427 36886 ft 492 kts 114°
2026-05-05 07:32 47.81550 7.94945 36886 ft 492 kts 114°
2026-05-05 07:32 47.81136 7.96564 36887 ft 492 kts 114°
2026-05-05 07:34 47.72069 8.31738 36887 ft 493 kts 115°
2026-05-05 07:34 47.69661 8.40990 36896 ft 494 kts 115°
2026-05-05 07:35 47.67269 8.50508 36902 ft 498 kts 112°
2026-05-05 07:35 47.65810 8.57063 36900 ft 502 kts 111°
2026-05-05 07:36 47.63009 8.69878 36901 ft 500 kts 111°
2026-05-05 07:36 47.60805 8.79658 36902 ft 500 kts 111°
2026-05-05 07:37 47.58587 8.89337 36902 ft 500 kts 111°
2026-05-05 07:37 47.56342 8.99072 36896 ft 499 kts 111°
2026-05-05 07:38 47.54093 9.08789 36896 ft 499 kts 112°
2026-05-05 07:38 47.51830 9.18527 36897 ft 499 kts 112°
2026-05-05 07:39 47.49567 9.28225 36901 ft 498 kts 112°
2026-05-05 07:39 47.47297 9.37907 36908 ft 498 kts 112°
2026-05-05 07:40 47.45019 9.47580 36912 ft 498 kts 112°
2026-05-05 07:40 47.42747 9.57187 36909 ft 498 kts 112°
2026-05-05 07:41 47.40658 9.66963 36911 ft 501 kts 105°
2026-05-05 07:41 47.39186 9.77028 36900 ft 501 kts 104°
2026-05-05 07:42 47.37796 9.87115 36887 ft 501 kts 104°
2026-05-05 07:42 47.36398 9.97231 36891 ft 502 kts 104°
2026-05-05 07:43 47.34986 10.07317 36890 ft 502 kts 104°
2026-05-05 07:43 47.33567 10.17324 36887 ft 501 kts 104°
2026-05-05 07:44 47.32830 10.22486 36891 ft 501 kts 104°
2026-05-05 07:44 47.31390 10.32539 36894 ft 501 kts 104°
2026-05-05 07:45 47.29946 10.42556 36895 ft 501 kts 104°
2026-05-05 07:45 47.28479 10.52663 36905 ft 502 kts 104°
2026-05-05 07:46 47.27022 10.62645 36901 ft 501 kts 104°
2026-05-05 07:46 47.25546 10.72694 36903 ft 501 kts 104°
2026-05-05 07:47 47.24063 10.82715 36911 ft 501 kts 104°
2026-05-05 07:47 47.22568 10.92749 36915 ft 501 kts 104°
2026-05-05 07:48 47.21074 11.02716 36917 ft 502 kts 104°
2026-05-05 07:48 47.19566 11.12715 36911 ft 501 kts 104°
2026-05-05 07:49 47.18047 11.22734 36906 ft 501 kts 104°
2026-05-05 07:49 47.16517 11.32748 36912 ft 501 kts 104°
2026-05-05 07:50 47.14980 11.42737 36912 ft 501 kts 104°
2026-05-05 07:50 47.13439 11.52707 36912 ft 500 kts 104°
2026-05-05 07:51 47.11891 11.62662 36932 ft 500 kts 104°
2026-05-05 07:51 47.10344 11.72540 36926 ft 499 kts 104°
2026-05-05 07:52 47.08784 11.82492 36938 ft 500 kts 103°
2026-05-05 07:52 47.08196 11.92650 36951 ft 501 kts 90°
2026-05-05 07:53 47.08365 12.02900 36948 ft 503 kts 88°
2026-05-05 07:53 47.08631 12.13161 36960 ft 502 kts 88°
2026-05-05 07:54 47.08877 12.23392 36940 ft 501 kts 88°
2026-05-05 07:54 47.09093 12.33605 36956 ft 500 kts 89°
2026-05-05 07:55 47.09291 12.43828 37072 ft 501 kts 90°
2026-05-05 07:55 47.09388 12.48904 36950 ft 504 kts 90°
2026-05-05 07:55 47.09482 12.54068 36942 ft 506 kts 90°
2026-05-05 07:56 47.09662 12.64397 36957 ft 507 kts 90°
2026-05-05 07:56 47.09835 12.74754 36945 ft 506 kts 90°
2026-05-05 07:57 47.10000 12.85084 36943 ft 506 kts 90°
2026-05-05 07:57 47.10156 12.95408 36945 ft 506 kts 91°
2026-05-05 07:58 47.10300 13.05664 36939 ft 505 kts 91°
2026-05-05 07:58 47.10415 13.14243 36941 ft 505 kts 91°
2026-05-05 07:59 47.10502 13.21145 36936 ft 505 kts 91°
2026-05-05 07:59 47.10624 13.31462 36935 ft 505 kts 91°
2026-05-05 08:00 47.10718 13.40049 36936 ft 506 kts 91°
2026-05-05 08:00 47.10874 13.55544 36939 ft 505 kts 91°
2026-05-05 08:01 47.10908 13.58963 36946 ft 505 kts 91°
2026-05-05 08:01 47.11037 13.74432 36944 ft 505 kts 91°
2026-05-05 08:02 47.11050 13.76169 36946 ft 505 kts 91°
2026-05-05 08:02 47.11183 13.96763 36952 ft 504 kts 91°
2026-05-05 08:03 47.11289 14.18558 36955 ft 504 kts 91°
2026-05-05 08:04 47.11320 14.27119 36952 ft 503 kts 91°
2026-05-05 08:04 47.11351 14.39143 36949 ft 503 kts 91°
2026-05-05 08:05 47.11309 14.49421 36945 ft 503 kts 95°
2026-05-05 08:05 47.10784 14.59618 36943 ft 503 kts 96°
2026-05-05 08:06 47.10173 14.69675 36940 ft 503 kts 96°
2026-05-05 08:06 47.09531 14.79923 36939 ft 504 kts 97°
2026-05-05 08:07 47.08886 14.90175 36939 ft 504 kts 96°
2026-05-05 08:07 47.08238 15.00425 36941 ft 504 kts 96°
2026-05-05 08:08 47.07587 15.10590 36925 ft 504 kts 97°
2026-05-05 08:08 47.06918 15.20840 36917 ft 504 kts 97°
2026-05-05 08:09 47.06242 15.31068 36913 ft 504 kts 97°
2026-05-05 08:09 47.05555 15.41312 36910 ft 504 kts 97°
2026-05-05 08:10 47.04863 15.51519 36912 ft 503 kts 97°
2026-05-05 08:10 47.04165 15.61677 36913 ft 503 kts 97°
2026-05-05 08:11 47.03455 15.71887 36919 ft 503 kts 97°
2026-05-05 08:11 47.02734 15.82102 36925 ft 503 kts 97°
2026-05-05 08:12 47.02005 15.92299 36932 ft 503 kts 97°
2026-05-05 08:12 47.01267 16.02497 36939 ft 503 kts 97°
2026-05-05 08:13 47.00520 16.12679 36940 ft 502 kts 97°
2026-05-05 08:13 46.99769 16.22802 36943 ft 502 kts 97°
2026-05-05 08:14 46.98685 16.32895 36943 ft 501 kts 102°
2026-05-05 08:14 46.97272 16.42887 36942 ft 501 kts 103°
2026-05-05 08:15 46.95881 16.52901 36945 ft 501 kts 102°
2026-05-05 08:15 46.94550 16.62903 36952 ft 501 kts 102°
2026-05-05 08:16 46.93232 16.72937 36954 ft 501 kts 102°
2026-05-05 08:16 46.91916 16.82897 36957 ft 502 kts 102°
2026-05-05 08:17 46.90576 16.92933 36960 ft 502 kts 102°
2026-05-05 08:17 46.89227 17.02940 36963 ft 502 kts 102°
2026-05-05 08:18 46.87868 17.12974 36963 ft 502 kts 102°
2026-05-05 08:18 46.86502 17.22987 36966 ft 502 kts 102°
2026-05-05 08:19 46.85137 17.32920 36968 ft 501 kts 102°
2026-05-05 08:19 46.83758 17.42897 36972 ft 501 kts 102°
2026-05-05 08:20 46.82370 17.52864 36981 ft 500 kts 102°
2026-05-05 08:20 46.80972 17.62821 36985 ft 500 kts 102°
2026-05-05 08:21 46.79567 17.72770 36995 ft 500 kts 102°
2026-05-05 08:21 46.78164 17.82650 36996 ft 499 kts 102°
2026-05-05 08:22 46.76745 17.92572 36997 ft 499 kts 102°
2026-05-05 08:22 46.75316 18.02493 37001 ft 499 kts 102°
2026-05-05 08:23 46.74123 18.10730 37004 ft 499 kts 102°
2026-05-05 08:23 46.72681 18.20637 37004 ft 499 kts 102°
2026-05-05 08:24 46.71230 18.30531 37005 ft 499 kts 102°
2026-05-05 08:24 46.69772 18.40413 37007 ft 499 kts 102°
2026-05-05 08:25 46.68313 18.50230 37007 ft 499 kts 102°
2026-05-05 08:25 46.66836 18.60107 37010 ft 499 kts 102°
2026-05-05 08:26 46.65350 18.69990 37013 ft 499 kts 102°
2026-05-05 08:26 46.63857 18.79849 37017 ft 499 kts 102°
2026-05-05 08:27 46.62361 18.89668 37014 ft 499 kts 102°
2026-05-05 08:27 46.60854 18.99511 37018 ft 499 kts 102°
2026-05-05 08:28 46.59337 19.09358 37023 ft 498 kts 102°
2026-05-05 08:28 46.57809 19.19205 37022 ft 498 kts 102°
2026-05-05 08:29 46.56275 19.29029 37023 ft 498 kts 102°
2026-05-05 08:30 46.53966 19.43722 37026 ft 498 kts 103°
2026-05-05 08:30 46.52412 19.53530 37026 ft 497 kts 103°
2026-05-05 08:31 46.50851 19.63318 37028 ft 497 kts 103°
2026-05-05 08:31 46.49291 19.73053 37033 ft 497 kts 103°
2026-05-05 08:32 46.47715 19.82826 37035 ft 497 kts 103°
2026-05-05 08:32 46.46130 19.92587 37032 ft 497 kts 103°
2026-05-05 08:33 46.44534 20.02374 37032 ft 497 kts 103°
2026-05-05 08:33 46.42933 20.12130 37040 ft 497 kts 103°
2026-05-05 08:34 46.41334 20.21821 37044 ft 497 kts 103°
2026-05-05 08:34 46.39718 20.31556 37042 ft 497 kts 103°
2026-05-05 08:35 46.38093 20.41295 37044 ft 497 kts 103°
2026-05-05 08:35 46.36454 20.51052 37053 ft 497 kts 103°
2026-05-05 08:36 46.34821 20.60727 37051 ft 497 kts 103°
2026-05-05 08:36 46.33162 20.70499 37051 ft 497 kts 103°
2026-05-05 08:37 46.31514 20.80152 37051 ft 497 kts 103°
2026-05-05 08:37 46.29850 20.89842 37049 ft 497 kts 103°
2026-05-05 08:38 46.28174 20.99550 37052 ft 497 kts 103°
2026-05-05 08:38 46.26454 21.09224 37046 ft 497 kts 106°
2026-05-05 08:39 46.24069 21.18607 37048 ft 498 kts 110°
2026-05-05 08:39 46.21512 21.27909 37049 ft 498 kts 111°
2026-05-05 08:40 46.18943 21.37130 37047 ft 498 kts 111°
2026-05-05 08:40 46.16356 21.46415 37050 ft 498 kts 110°
2026-05-05 08:41 46.13775 21.55678 37052 ft 498 kts 111°
2026-05-05 08:41 46.11187 21.64934 37052 ft 498 kts 110°
2026-05-05 08:42 46.08592 21.74185 37052 ft 498 kts 111°
2026-05-05 08:42 46.05985 21.83438 37057 ft 497 kts 111°
2026-05-05 08:43 46.03391 21.92611 37058 ft 497 kts 111°
2026-05-05 08:43 46.00779 22.01812 37052 ft 497 kts 111°
2026-05-05 08:44 45.98159 22.11007 37055 ft 496 kts 111°
2026-05-05 08:44 45.95534 22.20186 37058 ft 496 kts 111°
2026-05-05 08:45 45.92904 22.29347 37057 ft 495 kts 111°
2026-05-05 08:45 45.90267 22.38498 37060 ft 495 kts 111°
2026-05-05 08:46 45.87625 22.47635 37055 ft 495 kts 111°
2026-05-05 08:46 45.84996 22.56692 37055 ft 495 kts 111°
2026-05-05 08:47 45.82341 22.65804 37058 ft 494 kts 111°
2026-05-05 08:47 45.79681 22.74900 37062 ft 494 kts 111°
2026-05-05 08:48 45.77015 22.83979 37061 ft 494 kts 111°
2026-05-05 08:48 45.74346 22.93041 37059 ft 494 kts 111°
2026-05-05 08:49 45.71668 23.02097 37063 ft 493 kts 111°
2026-05-05 08:49 45.68987 23.11133 37063 ft 493 kts 111°
2026-05-05 08:50 45.66315 23.20106 37062 ft 493 kts 111°
2026-05-05 08:50 45.63621 23.29121 37065 ft 493 kts 111°
2026-05-05 08:51 45.60915 23.38137 37068 ft 493 kts 111°
2026-05-05 08:51 45.58205 23.47136 37070 ft 493 kts 111°
2026-05-05 08:52 45.55483 23.56148 37074 ft 494 kts 111°
2026-05-05 08:52 45.52775 23.65082 37074 ft 494 kts 111°
2026-05-05 08:53 45.50038 23.74078 37073 ft 494 kts 111°
2026-05-05 08:53 45.47299 23.83051 37074 ft 494 kts 111°
2026-05-05 08:54 45.44555 23.92008 37063 ft 494 kts 111°
2026-05-05 08:54 45.41799 24.00972 37062 ft 494 kts 111°
2026-05-05 08:55 45.39034 24.09927 37065 ft 494 kts 111°
2026-05-05 08:55 45.36280 24.18822 37067 ft 494 kts 111°
2026-05-05 08:56 45.33507 24.27752 37056 ft 494 kts 111°
2026-05-05 08:56 45.30726 24.36673 37056 ft 494 kts 111°
2026-05-05 08:57 45.27932 24.45595 37058 ft 494 kts 111°
2026-05-05 08:57 45.25130 24.54518 37056 ft 494 kts 112°
2026-05-05 08:58 45.22320 24.63435 37052 ft 495 kts 112°
2026-05-05 08:58 45.19505 24.72341 37044 ft 495 kts 112°
2026-05-05 08:59 45.16686 24.81227 37050 ft 495 kts 112°
2026-05-05 08:59 45.13872 24.90068 37045 ft 494 kts 112°
2026-05-05 09:00 45.11130 24.98646 37050 ft 494 kts 112°
2026-05-05 09:00 45.08302 25.07472 37048 ft 494 kts 112°
2026-05-05 09:01 45.05454 25.16330 37055 ft 494 kts 112°
2026-05-05 09:01 45.02597 25.25185 37057 ft 494 kts 112°
2026-05-05 09:02 44.99738 25.34012 37058 ft 494 kts 112°
2026-05-05 09:02 44.96869 25.42845 37058 ft 494 kts 112°
2026-05-05 09:03 44.94016 25.51597 37058 ft 494 kts 112°
2026-05-05 09:03 44.91136 25.60403 37054 ft 493 kts 112°
2026-05-05 09:04 44.88250 25.69194 37061 ft 493 kts 112°
2026-05-05 09:04 44.85375 25.77926 37063 ft 493 kts 113°
2026-05-05 09:05 44.82478 25.86695 37060 ft 493 kts 113°
2026-05-05 09:05 44.79573 25.95459 37067 ft 493 kts 113°
2026-05-05 09:06 44.76670 26.04189 37071 ft 493 kts 113°
2026-05-05 09:06 44.73757 26.12921 37070 ft 493 kts 113°
2026-05-05 09:07 44.70839 26.21641 37071 ft 492 kts 113°
2026-05-05 09:07 44.67912 26.30357 37072 ft 492 kts 113°
2026-05-05 09:08 44.64980 26.39059 37070 ft 492 kts 113°
2026-05-05 09:08 44.62060 26.47698 37066 ft 492 kts 113°
2026-05-05 09:09 44.59034 26.56341 37069 ft 493 kts 118°
2026-05-05 09:09 44.56166 26.63261 37067 ft 494 kts 119°
2026-05-05 09:10 44.52044 26.72880 37065 ft 494 kts 119°
2026-05-05 09:10 44.49067 26.79774 37064 ft 494 kts 119°
2026-05-05 09:11 44.45508 26.88013 37068 ft 494 kts 119°
2026-05-05 09:11 44.41972 26.96194 37067 ft 494 kts 120°
2026-05-05 09:12 44.38407 27.04422 37069 ft 494 kts 120°
2026-05-05 09:12 44.35282 27.11615 37069 ft 494 kts 120°
2026-05-05 09:13 44.32360 27.18328 37069 ft 494 kts 120°
2026-05-05 09:13 44.28779 27.26524 37067 ft 494 kts 120°
2026-05-05 09:14 44.25194 27.34707 37064 ft 494 kts 120°
2026-05-05 09:14 44.21604 27.42885 37069 ft 493 kts 120°
2026-05-05 09:15 44.18013 27.51035 37067 ft 493 kts 120°
2026-05-05 09:15 44.14446 27.59113 37065 ft 492 kts 120°
2026-05-05 09:16 44.10884 27.67152 37063 ft 492 kts 120°
2026-05-05 09:16 44.07285 27.75255 37070 ft 491 kts 120°
2026-05-05 09:17 44.03689 27.83328 37068 ft 491 kts 121°
2026-05-05 09:17 44.00104 27.91354 37068 ft 491 kts 121°
2026-05-05 09:18 43.96503 27.99399 37068 ft 491 kts 121°
2026-05-05 09:18 43.92892 28.07441 37067 ft 490 kts 121°
2026-05-05 09:19 43.89279 28.15460 37064 ft 490 kts 121°
2026-05-05 09:19 43.85659 28.23474 37062 ft 490 kts 121°
2026-05-05 09:20 43.82034 28.31480 37060 ft 490 kts 121°
2026-05-05 09:20 43.78401 28.39474 37063 ft 490 kts 121°
2026-05-05 09:21 43.74790 28.47405 37064 ft 490 kts 121°
2026-05-05 09:21 43.71143 28.55390 37063 ft 490 kts 121°
2026-05-05 09:22 43.67482 28.63334 37070 ft 490 kts 121°
2026-05-05 09:22 43.63802 28.71289 37074 ft 491 kts 121°
2026-05-05 09:23 43.60120 28.79235 37075 ft 491 kts 121°
2026-05-05 09:23 43.56460 28.87119 37077 ft 491 kts 121°
2026-05-05 09:24 43.52825 28.94931 37083 ft 491 kts 121°
2026-05-05 09:24 43.49124 29.02861 37086 ft 491 kts 121°
2026-05-05 09:25 43.45416 29.10786 37087 ft 492 kts 121°
2026-05-05 09:25 43.41709 29.18685 37087 ft 492 kts 121°
2026-05-05 09:26 43.38018 29.26530 37089 ft 492 kts 121°
2026-05-05 09:26 43.34279 29.34456 37084 ft 492 kts 121°
2026-05-05 09:27 43.30551 29.42337 37081 ft 492 kts 121°
2026-05-05 09:27 43.26827 29.50189 37084 ft 492 kts 121°
2026-05-05 09:28 43.23086 29.58057 37085 ft 493 kts 121°
2026-05-05 09:28 43.19329 29.65936 37071 ft 493 kts 121°
2026-05-05 09:29 43.15569 29.73800 37068 ft 493 kts 121°
2026-05-05 09:29 43.11828 29.81604 37084 ft 493 kts 122°
2026-05-05 09:30 43.08057 29.89449 37073 ft 493 kts 122°
2026-05-05 09:30 43.04269 29.97308 37069 ft 494 kts 122°
2026-05-05 09:31 43.00484 30.05142 37069 ft 494 kts 122°
2026-05-05 09:31 42.96710 30.12931 37065 ft 494 kts 122°
2026-05-05 09:32 42.92910 30.20756 37069 ft 494 kts 122°
2026-05-05 09:32 42.89108 30.28561 37062 ft 494 kts 122°
2026-05-05 09:33 42.85292 30.36375 37060 ft 494 kts 122°
2026-05-05 09:33 42.81643 30.43829 37060 ft 494 kts 122°
2026-05-05 09:34 42.77839 30.51579 37056 ft 494 kts 122°
2026-05-05 09:34 42.74278 30.59557 37053 ft 491 kts 112°
2026-05-05 09:35 42.72296 30.67539 37058 ft 488 kts 103°
2026-05-05 09:35 42.70814 30.75021 37050 ft 487 kts 102°